Flushing · NYS Corporation


Flushing · NYS Corporation

DOS ID Business Entity Name Address Filing Date
6024432 Genesis Sales Ny Corp 42-14 191 Street, Flushing, NEW YORK 11358 2021-05-28
6024376 A Zell Usa Inc 13510 62nd Ave Fl 1, Flushing, NEW YORK 11367 2021-05-28
6024339 Kfk Trading Inc 13317 Sanford Ave Apt 4h, Flushing, NEW YORK 11355 2021-05-28
6024986 Dany Day Care Inc 16016 33rd Ave, Flushing, NEW YORK 11358 2021-05-28
6024450 Prohibition Ny Corp 8601 Northern Blvd, Flushing, NEW YORK 11372 2021-05-28
6024768 Kg Services Group Inc 5715 Main Street Rear Unit, Flushing, NEW YORK 11355 2021-05-28
6024621 4015 LLC 40-15 150th Street, Flushing, NEW YORK 11354 2021-05-28
6024272 Jazzys LLC 6708 147th St., Flushing, NEW YORK 11367 2021-05-28
6024549 Pardeep Enterprise Establishment Inc 14626 Hawthorne Ave Apt 4f, Flushing, NEW YORK 11355 2021-05-28
6024669 Tianhexuan Inc 5610 135th St Fl1, Flushing, NEW YORK 11355 2021-05-28
6024969 Southwest Star LLC 4006 Main Street 2fl Apt H53, Flushing, NEW YORK 11354 2021-05-28
6024791 Song Tea Third Ave LLC 13835 39 Ave Apt 7m, Flushing, NEW YORK 11354 2021-05-28
6023790 Renhang Inc 14224 38th Ave 511, Flushing, NEW YORK 11354 2021-05-27
6023501 Fukui Trading Inc 4112a Main St, 2fl106, Flushing, NEW YORK 11355 2021-05-27
6023932 Twenty Four Herbs Inc 3920 Main St 2fl, Flushing, NEW YORK 11354 2021-05-27
6023760 Fufa Supply Inc 13684 Roosevelt Ave A12, Flushing, NEW YORK 11354 2021-05-27
6023699 America Korea United Society Inc 37-17 Union Street Fl3, Flushing, NEW YORK 11354 2021-05-27
6023627 Sila Transportation Inc 13261 Sanford Ave Apt 2c, Flushing, NEW YORK 11355 2021-05-27
6023292 Len Sang Inc 45-35 171st Pl, Flushing, NEW YORK 11358 2021-05-27
6023939 Wxh Trading Inc 3920 Main St Ste 262, Flushing, NEW YORK 11354 2021-05-27
6023430 Huang Jiannan Painting Art Inc 39-15 Main St 305, Flushing, NEW YORK 11354 2021-05-27
6024026 Xin Wang Wang Fuzhou Cuisine Inc. 41-18 Main Street, Flushing, NEW YORK 11355 2021-05-27
6023540 Jin Liu Enterprise Inc 4170 Main St B3-57w, Flushing, NEW YORK 11355 2021-05-27
6023840 Q Sushi and The Whale Tea Inc 60-05 Kissena Blvd, Flushing, NEW YORK 11355 2021-05-27
6022051 Cadence Auction Inc. 13720 45th Ave, 2y, Flushing, NEW YORK 11355 2021-05-26
6022466 Rgwf Corp. 3370 Prince St Apt 705, Flushing, NEW YORK 11354 2021-05-26
6022118 Yilutong Express Inc 14730 38th Ave 1k, Flushing, NEW YORK 11354 2021-05-26
6022801 Wreatber 682 LLC 151-25 34th Ave Suite 2, Flushing, NEW YORK 11354 2021-05-26
6022773 Web & Graphix Inc 98-09 Astoria Blvd, Flushing, NEW YORK 11369 2021-05-26
6022692 Lashyn Beauty Corp. 1871 Stanhope St, Flushing, NEW YORK 11385 2021-05-26
6022308 Ogun Enterprise LLC 33-38 Parsons Blvd., Apt. 4j, Flushing, NEW YORK 11354 2021-05-26
6022475 Riw General Construction Corp 61-49 146th Place, Apt 2fl, Flushing, NEW YORK 11367 2021-05-26
6022192 Yhl Enterprises Inc 147-58 41th Rd., Flushing, NEW YORK 11355 2021-05-26
6022523 Mr Y Inc 166-40 24th Ave, Flushing, NEW YORK 11357 2021-05-26
6021978 Icebycashley LLC 15519 Jewel Ave., Apt. 3d, Flushing, NEW YORK 11367 2021-05-26
6021833 Creations Uniquejen Nails Salon Inc. 41-07 159th Street, 1st Floor, Flushing, NEW YORK 11358 2021-05-26
6022576 Xinall LLC 14229 60th Ave, Fl2, Flushing, NEW YORK 11355 2021-05-26
6022517 Jk Supply Trading Inc. 28-10 122nd Street, Flushing, NEW YORK 11354 2021-05-26
6022437 Zl Speedy Inc 5738 134th St, Flushing, NEW YORK 11355 2021-05-26
6022678 Rich Lucky Food Group LLC 36-10 Union Street, Fl 1, Flushing, NEW YORK 11354 2021-05-26
6022735 Vs68 Management Inc 134-40 Cherry Ave 5c, Flushing, NEW YORK 11355 2021-05-26
6022589 Gqn Spa Inc 4275 Main St, Flushing, NEW YORK 11355 2021-05-26
6022629 Joojoos International Trading Co. Inc 4173a Bowne St, Flushing, NEW YORK 11355 2021-05-26
6022374 Jamesgateson Inc 13005 59 Ave, Flushing, NEW YORK 11355 2021-05-26
6022311 Keepsake House LLC 189-27 46th Road, Flushing, NEW YORK 11358 2021-05-26
6021337 Rolex Hui Inc 14415 41st Ave, Apt 115, Flushing, NEW YORK 11355 2021-05-25
6020745 Rpm Motors Nyc Corp 5929 156th Street, Flushing, NEW YORK 11355 2021-05-25
6021565 Jz Construction Group Inc. 3226 Union St Suite 1c, Flushing, NEW YORK 11354 2021-05-25
6021379 Jin Lin Usa East Corp 4131 Haight Street 1fl, Flushing, NEW YORK 11355 2021-05-25
6020895 Queens Multi Care LLC 3636 Main Street, Unit 2n, Flushing, NEW YORK 11354 2021-05-25
6021685 R&k Theme Photography Inc 132-35 Sanford Ave, Apt 5p, Flushing, NEW YORK 11355 2021-05-25
6021381 Sunnyside 45 LLC 3354 Farrington St #1a, Flushing, NEW YORK 11354 2021-05-25
6020985 Sky Wing Realty LLC 13440 Cherry Ave Apt 4d, Flushing, NEW YORK 11355 2021-05-25
6021433 Kgw Consulting Group Inc 5715 Main Street, Rear, Flushing, NEW YORK 11355 2021-05-25
6021421 Qnj Realty LLC 4036 191st Street Apt 2fl, Flushing, NEW YORK 11358 2021-05-25
6021075 Vitalite International LLC 4343 Kissena Blvd, Apt#107, Flushing, NEW YORK 11355 2021-05-25
6021574 Luxi Realty LLC 41-49 150th St Fl2, Flushing, NEW YORK 11355 2021-05-25
6021535 Hyatt Trading Co. Ltd 41-12 A Main St T07, Flushing, NEW YORK 11355 2021-05-25
6021303 Q S Car Service Inc 4717 Burling St, Flushing, NEW YORK 11355 2021-05-25
6021194 Sarjue Accounting & Tax Services LLC 14060 Beech Avenue Apt 6m, Flushing, NEW YORK 11355 2021-05-25
6021741 R and S Reliable Corp 14705 Sanford Ave Apt 1j, Flushing, NEW YORK 11355 2021-05-25
6021547 Fulin Trading Inc. 4114b Main St H57, Flushing, NEW YORK 11355 2021-05-25
6021490 Heng Yuan Enterprise Inc 4170 Main St B3-58w, Flushing, NEW YORK 11355 2021-05-25
6021699 Clank Group LLC 35-08 146th Street, Apt. 10c, Flushing, NEW YORK 11354 2021-05-25
6021488 Milo Truck LLC 42-12 196th Street, Flushing, NEW YORK 11358 2021-05-25
6021495 International Express 689 Inc 13308 41st Rd, Apt 2f, Flushing, NEW YORK 11355 2021-05-25
6019795 Sk Garment Fashion Inc 140-59 Ash Ave, Flushing, NEW YORK 11355 2021-05-24
6020684 Iapp&3d Printing LLC 137-47 45th Ave Apt 10g, Flushing, NEW YORK 11355 2021-05-24
6020551 J & M Real Estate Lam's Group LLC 4190 Frame Place, Apt. 5c, Flushing, NEW YORK 11355 2021-05-24
6020127 J & Meng Trading Inc 7707 138th St Unit E, Flushing, NEW YORK 11367 2021-05-24
6020586 Xinhu Skincare Spa Inc 135-24 Roosevelt Ave 2 Fl, Flushing, NEW YORK 11354 2021-05-24
6020500 Mokey Trading Inc 133-01 Sanford Ave Apt 4l, Flushing, NEW YORK 11355 2021-05-24
6019946 Runxin Garden Inc 37-18 Main Street 1fl, Flushing, NEW YORK 11354 2021-05-24
6019827 Rhino Leadership LLC 4356 163rd Street, 2nd Floor, Flushing, NEW YORK 11358 2021-05-24
6020210 Yida Car Service Inc. 3506 Leavitt St, Apt 7f, Flushing, NEW YORK 11354 2021-05-24
6020321 Golden Source Media Group, Inc. 3610 Union Street, 2fl, Flushing, NEW YORK 11354 2021-05-24
6020212 Gao Jian Inc 143-28 Oak Ave. 1f, Flushing, NEW YORK 11355 2021-05-24
6020393 B&l Black Inc 144-77 Barclay Ave Apt 5a, Flushing, NEW YORK 11355 2021-05-24
6020535 Top Hardware Industrial Inc. 41-21 Fuller Pl, Flushing, NEW YORK 11355 2021-05-24
6019064 Dilan Management Inc 140-33 34th Ave 4e, Flushing, NEW YORK 11354 2021-05-21
6019349 Health Group Inc 144-63 35th Ave, Suite 6k, Flushing, NEW YORK 11354 2021-05-21
6018955 Ny Guangxi Reunion Inc 133-33 Sanford Ave Apt 6d, Flushing, NEW YORK 11355 2021-05-21
6018672 Graceful Realty Nyc Inc 33-53 191st Street, Flushing, NEW YORK 11358 2021-05-21
6018971 Gja Consulting Corp. 133-08 35th Ave, 2nd Floor, Flushing, NEW YORK 11354 2021-05-21
6019363 Rapid Booming Inc 14307 Sanford Ave 2b, Flushing, NEW YORK 11355 2021-05-21
6019505 A & J Biz Group Inc. 3614 Union St Ste 3, Flushing, NEW YORK 11354 2021-05-21
6019247 Beyond The Booth Inc 43-22 Kissena Blvd, Suite 10t, Flushing, NEW YORK 11355 2021-05-21
6017805 Ny Three Brothers Inc 13619 38th Ave Ste 3, Flushing, NEW YORK 11354 2021-05-20
6018289 Relax Max Spa Inc 14907 14th Ave, Flushing, NEW YORK 11357 2021-05-20
6018353 Egn Distributors Inc 44-35 Colden Street Suite 1-J, Flushing, NEW YORK 11355 2021-05-20
6018177 Se Beauty Inc 144-26 75 Avenue, Flushing, NEW YORK 11367 2021-05-20
6018089 88 Motorsports Inc. 149-02 24th Ave, Flushing, NEW YORK 11357 2021-05-20
6018021 Ultrasonic Tech LLC 39-20 Main St 2fl 419, Flushing, NEW YORK 11354 2021-05-20
6018312 Peking Duck & Snack Inc. 136-20 Roosevelt Avenue #9, Flushing, NEW YORK 11354 2021-05-20
6017842 Cyphin LLC 18-72 Menahan Street, 3r, Flushing, NEW YORK 11385 2021-05-20
6016757 Fortitude Trading Inc 13631 41st Avenue Suite 2a, Flushing, NEW YORK 11355 2021-05-19
6016746 Luan Litigation Firm, Pllc 132-01 Roosevelt Avenue, Suite 150, Flushing, NEW YORK 11354 2021-05-19
6016908 Treasure Reef Group Limited 4618 Bowne St, Flushing, NEW YORK 11355 2021-05-19
6017280 Zeus Consulting Inc 13680 Roosevelt Ave Ste 303, Flushing, NEW YORK 11354 2021-05-19
6016970 Yuyos, Corp. 78-27 68th Rd, Flushing, NEW YORK 11379 2021-05-19

City

City Counts
1. New York 637769 19.01%
2. Brooklyn 465944 13.89%
3. Albany 158663 4.73%
4. Bronx 101983 3.04%
5. Staten Island 57444 1.71%
6. Flushing 53665 1.60%
7. Buffalo 49131 1.46%
8. Rochester 40403 1.20%
9. Jamaica 26373 0.79%
10. Great Neck 25103 0.75%
11. Astoria 23749 0.71%
12. Yonkers 22896 0.68%
13. White Plains 22113 0.66%
14. Syracuse 17952 0.54%
15. Long Island City 17812 0.53%
16. Garden City 14774 0.44%
17. Forest Hills 13821 0.41%
18. Monsey 13606 0.41%
19. Valley Stream 12360 0.37%
20. New Rochelle 12299 0.37%